User: anonymous   Login
Location: Unspecified
(0.0000°N, 0.0000°E)
Time: 08:34:37
(UTC+00:00)
Language:

UWE-2 - Orbit

View from above orbital plane
View from above orbital plane
View from above satellite
View from above satellite

Ground track
Ground track

The orbit data is extracted from the following two-line orbital elements,

1 35934U 09051D   24104.61633832  .00000975  00000-0  22461-3 0  9991
2 35934  98.4891 344.0603 0006351 169.8379 190.2948 14.57631335773090
Epoch (UTC): 13 April 2024 14:47:31
Eccentricity: 0.0006351
inclination: 98.4891°
perigee height: 696 km
apogee height: 705 km
right ascension of ascending node: 344.0603°
argument of perigee: 169.8379°
revolutions per day: 14.57631335
mean anomaly at epoch: 190.2948°
orbit number at epoch: 77309

The dashed part of the orbit path shows where the satellite is in the earth's shadow,  

DLR